START_TIME,STEP,MOV.,AL01,t_acc.,AL02,t_acc.,E37,t_acc.,H21,t_acc.
1989-08-27T00:00:34.910 ,1,0,0.,24.0,0.,24.0,0.,24.0,0.,24.0
1989-08-27T00:00:58.910 ,2,1,0.,24.0,0.,24.0,0.,24.0,0.,24.0
1989-08-27T00:01:22.910 ,2,0,0.,24.0,0.,24.0,0.,24.0,0.,24.0
1989-08-27T00:01:46.910 ,3,1,0.,24.0,0.,24.0,0.,24.0,0.,24.0
1989-08-27T00:02:10.910 ,3,0,0.,24.0,0.,24.0,0.,24.0,0.,24.0
1989-08-27T00:02:34.910 ,4,1,0.,24.0,0.,24.0,0.,24.0,0.,24.0
1989-08-27T00:02:58.910 ,4,0,0.,24.0,0.,24.0,0.,24.0,0.,24.0
1989-08-27T00:03:22.910 ,5,1,0.,24.0,0.,24.0,0.,24.0,0.,24.0
1989-08-27T00:03:46.910 ,5,0,0.,24.0,0.,24.0,0.,24.0,0.,24.0
1989-08-27T00:04:10.910 ,6,1,0.,24.0,0.,24.0,0.,24.0,0.,24.0
1989-08-27T00:04:34.910 ,6,0,0.,24.0,0.,24.0,0.,24.0,0.,24.0
1989-08-27T00:04:58.910 ,7,1,4.,24.0,0.,24.0,0.,24.0,0.,24.0
1989-08-27T00:05:22.910 ,7,0,28.,24.0,0.,24.0,0.,24.0,0.,24.0
1989-08-27T00:05:46.910 ,7,1,23.,24.0,0.,24.0,0.,24.0,0.,24.0
1989-08-27T00:06:10.910 ,7,0,43.,24.0,0.,24.0,0.,24.0,0.,24.0
1989-08-27T00:06:34.910 ,6,1,18.,24.0,0.,24.0,0.,24.0,0.,24.0
1989-08-27T00:06:58.910 ,6,0,0.,24.0,0.,24.0,0.,24.0,0.,24.0
1989-08-27T00:07:22.910 ,5,1,0.,24.0,0.,24.0,0.,24.0,0.,24.0
1989-08-27T00:07:46.910 ,5,0,0.,24.0,0.,24.0,0.,24.0,0.,24.0
1989-08-27T00:08:10.910 ,4,1,0.,24.0,0.,24.0,0.,24.0,0.,24.0
1989-08-27T00:08:34.910 ,4,0,0.,24.0,0.,24.0,0.,24.0,0.,24.0
1989-08-27T00:08:58.910 ,3,1,0.,24.0,0.,24.0,0.,24.0,0.,24.0
1989-08-27T00:09:22.910 ,3,0,0.,24.0,0.,24.0,0.,24.0,0.,24.0
1989-08-27T00:09:46.910 ,2,1,0.,24.0,0.,24.0,0.,24.0,0.,24.0
1989-08-27T00:10:10.910 ,2,0,0.,24.0,0.,24.0,0.,24.0,0.,24.0
1989-08-27T00:10:34.910 ,1,1,0.,24.0,0.,24.0,0.,24.0,0.,24.0
1989-08-27T00:10:58.910 ,1,0,0.,24.0,0.,24.0,0.,24.0,0.,24.0
1989-08-27T00:11:22.910 ,0,1,0.,24.0,0.,24.0,0.,24.0,0.,24.0
1989-08-27T00:11:46.910 ,0,0,0.,24.0,0.,24.0,0.,24.0,0.,24.0
1989-08-27T00:12:10.900 ,0,1,0.,24.0,0.,24.0,0.,24.0,0.,24.0
1989-08-27T00:12:34.900 ,0,0,0.,24.0,0.,24.0,0.,24.0,0.,24.0
1989-08-27T00:12:58.900 ,1,1,0.,24.0,0.,24.0,0.,24.0,0.,24.0
1989-08-27T00:13:22.900 ,1,0,0.,24.0,0.,24.0,0.,24.0,0.,24.0
1989-08-27T00:13:46.900 ,2,1,0.,24.0,0.,24.0,0.,24.0,0.,24.0
1989-08-27T00:14:10.900 ,2,0,0.,24.0,0.,24.0,0.,24.0,0.,24.0
1989-08-27T00:14:34.900 ,3,1,0.,24.0,0.,24.0,0.,24.0,0.,24.0
1989-08-27T00:14:58.900 ,3,0,0.,24.0,0.,24.0,0.,24.0,0.,24.0
1989-08-27T00:15:22.900 ,4,1,0.,24.0,0.,24.0,0.,24.0,0.,24.0
1989-08-27T00:15:46.900 ,4,0,0.,24.0,0.,24.0,0.,24.0,0.,24.0
1989-08-27T00:16:10.900 ,5,1,0.,24.0,0.,24.0,0.,24.0,0.,24.0
1989-08-27T00:16:34.900 ,5,0,0.,24.0,0.,24.0,0.,24.0,0.,24.0
1989-08-27T00:16:58.900 ,6,1,0.,24.0,0.,24.0,0.,24.0,0.,24.0
1989-08-27T00:17:22.910 ,6,0,0.,24.0,0.,24.0,0.,24.0,0.,24.0
1989-08-27T00:17:46.910 ,7,1,4.,24.0,0.,24.0,0.,24.0,0.,24.0
1989-08-27T00:18:10.910 ,7,0,28.,24.0,0.,24.0,0.,24.0,0.,24.0
1989-08-27T00:18:34.910 ,7,1,34.,24.0,0.,24.0,0.,24.0,0.,24.0
1989-08-27T00:18:58.910 ,7,0,36.,24.0,0.,24.0,0.,24.0,0.,24.0
1989-08-27T00:19:22.910 ,6,1,26.,24.0,0.,24.0,0.,24.0,0.,24.0
1989-08-27T00:19:46.910 ,6,0,0.,24.0,0.,24.0,0.,24.0,0.,24.0
1989-08-27T00:20:10.910 ,5,1,0.,24.0,0.,24.0,0.,24.0,0.,24.0
1989-08-27T00:20:34.910 ,5,0,0.,24.0,0.,24.0,0.,24.0,0.,24.0
1989-08-27T00:20:58.910 ,4,1,0.,24.0,0.,24.0,0.,24.0,0.,24.0
1989-08-27T00:21:22.910 ,4,0,0.,24.0,0.,24.0,0.,24.0,0.,24.0
1989-08-27T00:21:46.910 ,3,1,0.,24.0,0.,24.0,0.,24.0,0.,24.0
1989-08-27T00:22:10.910 ,3,0,0.,24.0,0.,24.0,0.,24.0,0.,24.0
1989-08-27T00:22:34.910 ,2,1,1.,24.0,0.,24.0,0.,24.0,0.,24.0
1989-08-27T00:22:58.910 ,2,0,0.,24.0,0.,24.0,0.,24.0,0.,24.0
1989-08-27T00:23:22.910 ,1,1,0.,24.0,0.,24.0,0.,24.0,0.,24.0
1989-08-27T00:23:46.910 ,1,0,1.,24.0,0.,24.0,0.,24.0,0.,24.0
1989-08-27T00:24:10.910 ,0,1,0.,24.0,0.,24.0,0.,24.0,0.,24.0
1989-08-27T00:24:34.910 ,0,0,0.,24.0,0.,24.0,0.,24.0,0.,24.0
1989-08-27T00:24:58.900 ,0,1,0.,24.0,0.,24.0,0.,24.0,0.,24.0
1989-08-27T00:25:22.900 ,0,0,0.,24.0,0.,24.0,0.,24.0,0.,24.0
1989-08-27T00:25:46.900 ,1,1,0.,24.0,1.,24.0,0.,24.0,0.,24.0
1989-08-27T00:26:10.900 ,1,0,0.,24.0,0.,24.0,0.,24.0,0.,24.0
1989-08-27T00:26:34.900 ,2,1,0.,24.0,0.,24.0,0.,24.0,0.,24.0
1989-08-27T00:26:58.900 ,2,0,0.,24.0,0.,24.0,0.,24.0,0.,24.0
1989-08-27T00:27:22.900 ,3,1,0.,24.0,0.,24.0,0.,24.0,0.,24.0
1989-08-27T00:27:46.900 ,3,0,0.,24.0,0.,24.0,0.,24.0,0.,24.0
1989-08-27T00:28:10.900 ,4,1,0.,24.0,0.,24.0,0.,24.0,0.,24.0
1989-08-27T00:28:34.900 ,4,0,0.,24.0,0.,24.0,0.,24.0,0.,24.0
1989-08-27T00:28:58.900 ,5,1,0.,24.0,0.,24.0,0.,24.0,0.,24.0
1989-08-27T00:29:22.900 ,5,0,0.,24.0,0.,24.0,0.,24.0,0.,24.0
1989-08-27T00:29:46.900 ,6,1,0.,24.0,0.,24.0,0.,24.0,0.,24.0
1989-08-27T00:30:10.900 ,6,0,0.,24.0,0.,24.0,0.,24.0,0.,24.0
1989-08-27T00:30:34.900 ,7,1,5.,24.0,0.,24.0,0.,24.0,0.,24.0
1989-08-27T00:30:58.900 ,7,0,20.,24.0,0.,24.0,0.,24.0,0.,24.0
1989-08-27T00:31:22.900 ,7,1,22.,24.0,0.,24.0,0.,24.0,0.,24.0
1989-08-27T00:31:46.900 ,7,0,23.,24.0,0.,24.0,0.,24.0,0.,24.0
1989-08-27T00:32:10.900 ,6,1,21.,24.0,0.,24.0,0.,24.0,0.,24.0
1989-08-27T00:32:34.900 ,6,0,0.,24.0,0.,24.0,0.,24.0,0.,24.0
1989-08-27T00:32:58.900 ,5,1,0.,24.0,0.,24.0,0.,24.0,0.,24.0
1989-08-27T00:33:22.900 ,5,0,0.,24.0,0.,24.0,0.,24.0,0.,24.0
1989-08-27T00:33:46.900 ,4,1,0.,24.0,0.,24.0,0.,24.0,0.,24.0
1989-08-27T00:34:10.900 ,4,0,0.,24.0,0.,24.0,0.,24.0,0.,24.0
1989-08-27T00:34:34.900 ,3,1,0.,24.0,0.,24.0,0.,24.0,0.,24.0
1989-08-27T00:34:58.900 ,3,0,0.,24.0,0.,24.0,0.,24.0,0.,24.0
1989-08-27T00:35:22.900 ,2,1,0.,24.0,0.,24.0,0.,24.0,0.,24.0
1989-08-27T00:35:46.900 ,2,0,0.,24.0,0.,24.0,0.,24.0,0.,24.0
1989-08-27T00:36:10.900 ,1,1,0.,24.0,0.,24.0,0.,24.0,0.,24.0
1989-08-27T00:36:34.900 ,1,0,0.,24.0,1.,24.0,0.,24.0,0.,24.0
1989-08-27T00:36:58.900 ,0,1,0.,24.0,0.,24.0,0.,24.0,0.,24.0
1989-08-27T00:37:22.900 ,0,0,0.,24.0,0.,24.0,0.,24.0,0.,24.0
1989-08-27T00:37:46.900 ,0,1,0.,24.0,0.,24.0,0.,24.0,0.,24.0
1989-08-27T00:38:10.900 ,0,0,0.,24.0,0.,24.0,0.,24.0,0.,24.0
1989-08-27T00:38:34.900 ,1,1,0.,24.0,0.,24.0,0.,24.0,0.,24.0
1989-08-27T00:38:58.900 ,1,0,0.,24.0,0.,24.0,0.,24.0,0.,24.0
1989-08-27T00:39:22.900 ,2,1,0.,24.0,0.,24.0,0.,24.0,0.,24.0
1989-08-27T00:39:46.900 ,2,0,0.,24.0,0.,24.0,0.,24.0,0.,24.0
1989-08-27T00:40:10.900 ,3,1,1.,24.0,0.,24.0,0.,24.0,0.,24.0
1989-08-27T00:40:34.900 ,3,0,0.,24.0,0.,24.0,0.,24.0,0.,24.0
1989-08-27T00:40:58.900 ,4,1,0.,24.0,0.,24.0,0.,24.0,0.,24.0
1989-08-27T00:41:22.900 ,4,0,0.,24.0,0.,24.0,0.,24.0,0.,24.0
1989-08-27T00:41:46.900 ,5,1,0.,24.0,0.,24.0,0.,24.0,0.,24.0
1989-08-27T00:42:10.900 ,5,0,0.,24.0,0.,24.0,0.,24.0,0.,24.0
1989-08-27T00:42:34.900 ,6,1,0.,24.0,0.,24.0,0.,24.0,0.,24.0
1989-08-27T00:42:58.900 ,6,0,0.,24.0,0.,24.0,0.,24.0,0.,24.0
1989-08-27T00:43:22.900 ,7,1,14.,24.0,0.,24.0,0.,24.0,0.,24.0
1989-08-27T00:43:46.900 ,7,0,20.,24.0,1.,24.0,0.,24.0,0.,24.0
1989-08-27T00:44:10.900 ,7,1,32.,24.0,0.,24.0,0.,24.0,0.,24.0
1989-08-27T00:44:34.900 ,7,0,35.,24.0,0.,24.0,0.,24.0,0.,24.0
1989-08-27T00:44:58.900 ,6,1,19.,24.0,0.,24.0,0.,24.0,0.,24.0
1989-08-27T00:45:22.900 ,6,0,0.,24.0,0.,24.0,0.,24.0,0.,24.0
1989-08-27T00:45:46.900 ,5,1,0.,24.0,0.,24.0,0.,24.0,0.,24.0
1989-08-27T00:46:10.900 ,5,0,0.,24.0,0.,24.0,0.,24.0,0.,24.0
1989-08-27T00:46:34.900 ,4,1,0.,24.0,0.,24.0,0.,24.0,0.,24.0
1989-08-27T00:46:58.900 ,4,0,0.,24.0,1.,24.0,0.,24.0,0.,24.0
1989-08-27T00:47:22.900 ,3,1,0.,24.0,0.,24.0,0.,24.0,0.,24.0
1989-08-27T00:47:46.900 ,3,0,0.,24.0,0.,24.0,0.,24.0,0.,24.0
1989-08-27T00:48:10.900 ,2,1,0.,24.0,0.,24.0,0.,24.0,0.,24.0
1989-08-27T00:48:34.900 ,2,0,0.,24.0,0.,24.0,0.,24.0,0.,24.0
1989-08-27T00:48:58.900 ,1,1,0.,24.0,0.,24.0,0.,24.0,0.,24.0
1989-08-27T00:49:22.900 ,1,0,0.,24.0,0.,24.0,0.,24.0,0.,24.0
1989-08-27T00:49:46.900 ,0,1,0.,24.0,1.,24.0,0.,24.0,0.,24.0
1989-08-27T00:50:10.900 ,0,0,0.,24.0,0.,24.0,0.,24.0,0.,24.0
1989-08-27T00:50:34.900 ,0,1,0.,24.0,0.,24.0,0.,24.0,0.,24.0
1989-08-27T00:50:58.900 ,0,0,0.,24.0,0.,24.0,0.,24.0,0.,24.0
1989-08-27T00:51:22.900 ,1,1,0.,24.0,0.,24.0,0.,24.0,0.,24.0
1989-08-27T00:51:46.900 ,1,0,0.,24.0,0.,24.0,0.,24.0,0.,24.0
1989-08-27T00:52:10.900 ,2,1,0.,24.0,0.,24.0,0.,24.0,0.,24.0
1989-08-27T00:52:34.900 ,2,0,0.,24.0,0.,24.0,0.,24.0,0.,24.0
1989-08-27T00:52:58.900 ,3,1,0.,24.0,0.,24.0,0.,24.0,0.,24.0
1989-08-27T00:53:22.900 ,3,0,0.,24.0,0.,24.0,0.,24.0,0.,24.0
1989-08-27T00:53:46.900 ,4,1,0.,24.0,0.,24.0,0.,24.0,0.,24.0
1989-08-27T00:54:10.900 ,4,0,0.,24.0,0.,24.0,0.,24.0,0.,24.0
1989-08-27T00:54:34.900 ,5,1,0.,24.0,0.,24.0,0.,24.0,0.,24.0
1989-08-27T00:54:58.900 ,5,0,0.,24.0,0.,24.0,0.,24.0,0.,24.0
1989-08-27T00:55:22.900 ,6,1,0.,24.0,0.,24.0,0.,24.0,0.,24.0
1989-08-27T00:55:46.900 ,6,0,0.,24.0,0.,24.0,0.,24.0,0.,24.0
1989-08-27T00:56:10.900 ,7,1,15.,24.0,0.,24.0,0.,24.0,0.,24.0
1989-08-27T00:56:34.900 ,7,0,31.,24.0,0.,24.0,0.,24.0,0.,24.0
1989-08-27T00:56:58.900 ,7,1,29.,24.0,0.,24.0,0.,24.0,0.,24.0
1989-08-27T00:57:22.900 ,7,0,27.,24.0,0.,24.0,0.,24.0,0.,24.0
1989-08-27T00:57:46.900 ,6,1,24.,24.0,0.,24.0,0.,24.0,0.,24.0
1989-08-27T00:58:10.900 ,6,0,0.,24.0,0.,24.0,0.,24.0,0.,24.0
1989-08-27T00:58:34.900 ,5,1,0.,24.0,0.,24.0,0.,24.0,0.,24.0
1989-08-27T00:58:58.900 ,5,0,0.,24.0,0.,24.0,0.,24.0,0.,24.0
1989-08-27T00:59:22.900 ,4,1,0.,24.0,0.,24.0,0.,24.0,0.,24.0
1989-08-27T00:59:46.900 ,4,0,0.,24.0,0.,24.0,0.,24.0,0.,24.0
1989-08-27T01:00:10.900 ,3,1,0.,24.0,0.,24.0,0.,24.0,0.,24.0
1989-08-27T01:00:34.900 ,3,0,0.,24.0,0.,24.0,0.,24.0,0.,24.0
1989-08-27T01:00:58.900 ,2,1,0.,24.0,0.,24.0,0.,24.0,0.,24.0
1989-08-27T01:01:22.900 ,2,0,0.,24.0,0.,24.0,0.,24.0,0.,24.0
1989-08-27T01:01:46.900 ,1,1,0.,24.0,0.,24.0,0.,24.0,0.,24.0
1989-08-27T01:02:10.900 ,1,0,0.,24.0,0.,24.0,0.,24.0,0.,24.0
1989-08-27T01:02:34.900 ,0,1,0.,24.0,0.,24.0,0.,24.0,0.,24.0
1989-08-27T01:02:58.900 ,0,0,0.,24.0,0.,24.0,0.,24.0,0.,24.0
1989-08-27T01:03:22.900 ,0,1,0.,24.0,0.,24.0,0.,24.0,0.,24.0
1989-08-27T01:03:46.900 ,0,0,0.,24.0,0.,24.0,0.,24.0,0.,24.0
1989-08-27T01:04:10.900 ,1,1,0.,24.0,0.,24.0,0.,24.0,0.,24.0
1989-08-27T01:04:34.900 ,1,0,0.,24.0,0.,24.0,0.,24.0,0.,24.0
1989-08-27T01:04:58.900 ,2,1,0.,24.0,0.,24.0,0.,24.0,0.,24.0
1989-08-27T01:05:22.900 ,2,0,0.,24.0,0.,24.0,0.,24.0,0.,24.0
1989-08-27T01:05:46.900 ,3,1,0.,24.0,0.,24.0,0.,24.0,0.,24.0
1989-08-27T01:06:10.900 ,3,0,0.,24.0,0.,24.0,0.,24.0,0.,24.0
1989-08-27T01:06:34.900 ,4,1,0.,24.0,0.,24.0,0.,24.0,0.,24.0
1989-08-27T01:06:58.900 ,4,0,0.,24.0,0.,24.0,0.,24.0,0.,24.0
1989-08-27T01:07:22.900 ,5,1,0.,24.0,0.,24.0,0.,24.0,0.,24.0
1989-08-27T01:07:46.900 ,5,0,0.,24.0,0.,24.0,0.,24.0,0.,24.0
1989-08-27T01:08:10.900 ,6,1,0.,24.0,0.,24.0,0.,24.0,0.,24.0
1989-08-27T01:08:34.900 ,6,0,0.,24.0,0.,24.0,0.,24.0,0.,24.0
1989-08-27T01:08:58.900 ,7,1,8.,24.0,0.,24.0,0.,24.0,0.,24.0
1989-08-27T01:09:22.900 ,7,0,35.,24.0,0.,24.0,0.,24.0,0.,24.0
1989-08-27T01:09:46.900 ,7,1,29.,24.0,0.,24.0,0.,24.0,0.,24.0
1989-08-27T01:10:10.900 ,7,0,35.,24.0,0.,24.0,0.,24.0,0.,24.0
1989-08-27T01:10:34.900 ,6,1,22.,24.0,0.,24.0,0.,24.0,0.,24.0
1989-08-27T01:10:58.900 ,6,0,0.,24.0,0.,24.0,0.,24.0,0.,24.0
1989-08-27T01:11:22.900 ,5,1,0.,24.0,0.,24.0,0.,24.0,0.,24.0
1989-08-27T01:11:46.900 ,5,0,0.,24.0,0.,24.0,0.,24.0,0.,24.0
1989-08-27T01:12:10.900 ,4,1,0.,24.0,0.,24.0,0.,24.0,0.,24.0
1989-08-27T01:12:34.900 ,4,0,0.,24.0,0.,24.0,0.,24.0,0.,24.0
1989-08-27T01:12:58.900 ,3,1,0.,24.0,0.,24.0,0.,24.0,0.,24.0
1989-08-27T01:13:22.900 ,3,0,0.,24.0,0.,24.0,0.,24.0,0.,24.0
1989-08-27T01:13:46.900 ,2,1,0.,24.0,0.,24.0,0.,24.0,0.,24.0
1989-08-27T01:14:10.900 ,2,0,0.,24.0,0.,24.0,0.,24.0,0.,24.0
1989-08-27T01:14:34.900 ,1,1,0.,24.0,1.,24.0,0.,24.0,0.,24.0
1989-08-27T01:14:58.900 ,1,0,0.,24.0,0.,24.0,0.,24.0,0.,24.0
1989-08-27T01:15:22.900 ,0,1,0.,24.0,0.,24.0,0.,24.0,0.,24.0
1989-08-27T01:15:46.900 ,0,0,0.,24.0,0.,24.0,0.,24.0,0.,24.0
1989-08-27T01:16:10.900 ,0,1,0.,24.0,0.,24.0,0.,24.0,0.,24.0
1989-08-27T01:16:34.900 ,0,0,0.,24.0,0.,24.0,0.,24.0,0.,24.0
1989-08-27T01:16:58.900 ,1,1,0.,24.0,0.,24.0,0.,24.0,0.,24.0
1989-08-27T01:17:22.900 ,1,0,0.,24.0,0.,24.0,0.,24.0,0.,24.0
1989-08-27T01:17:46.900 ,2,1,0.,24.0,0.,24.0,0.,24.0,0.,24.0
1989-08-27T01:18:10.900 ,2,0,0.,24.0,0.,24.0,0.,24.0,0.,24.0
1989-08-27T01:18:34.900 ,3,1,0.,24.0,0.,24.0,0.,24.0,0.,24.0
1989-08-27T01:18:58.900 ,3,0,0.,24.0,0.,24.0,0.,24.0,0.,24.0
1989-08-27T01:19:22.900 ,4,1,0.,24.0,0.,24.0,0.,24.0,0.,24.0
1989-08-27T01:19:46.900 ,4,0,0.,24.0,0.,24.0,0.,24.0,0.,24.0
1989-08-27T01:20:10.900 ,5,1,0.,24.0,0.,24.0,0.,24.0,0.,24.0
1989-08-27T01:20:34.900 ,5,0,0.,24.0,0.,24.0,0.,24.0,0.,24.0
1989-08-27T01:20:58.900 ,6,1,0.,24.0,0.,24.0,0.,24.0,0.,24.0
1989-08-27T01:21:22.900 ,6,0,0.,24.0,0.,24.0,0.,24.0,0.,24.0
1989-08-27T01:21:46.900 ,7,1,4.,24.0,0.,24.0,0.,24.0,0.,24.0
1989-08-27T01:22:10.900 ,7,0,40.,24.0,0.,24.0,0.,24.0,0.,24.0
1989-08-27T01:22:34.900 ,7,1,40.,24.0,0.,24.0,0.,24.0,0.,24.0
1989-08-27T01:22:58.900 ,7,0,31.,24.0,0.,24.0,0.,24.0,0.,24.0
1989-08-27T01:23:22.900 ,6,1,26.,24.0,0.,24.0,0.,24.0,0.,24.0
1989-08-27T01:23:46.900 ,6,0,0.,24.0,0.,24.0,0.,24.0,0.,24.0
1989-08-27T01:24:10.900 ,5,1,0.,24.0,0.,24.0,0.,24.0,0.,24.0
1989-08-27T01:24:34.900 ,5,0,0.,24.0,0.,24.0,0.,24.0,0.,24.0
1989-08-27T01:24:58.900 ,4,1,0.,24.0,0.,24.0,0.,24.0,0.,24.0
1989-08-27T01:25:22.900 ,4,0,0.,24.0,0.,24.0,0.,24.0,0.,24.0
1989-08-27T01:25:46.900 ,3,1,0.,24.0,0.,24.0,0.,24.0,0.,24.0
1989-08-27T01:26:10.900 ,3,0,0.,24.0,0.,24.0,0.,24.0,0.,24.0
1989-08-27T01:26:34.900 ,2,1,0.,24.0,0.,24.0,0.,24.0,0.,24.0
1989-08-27T01:26:58.900 ,2,0,0.,24.0,0.,24.0,0.,24.0,0.,24.0
1989-08-27T01:27:22.900 ,1,1,0.,24.0,0.,24.0,0.,24.0,0.,24.0
1989-08-27T01:27:46.900 ,1,0,0.,24.0,0.,24.0,0.,24.0,0.,24.0
1989-08-27T01:28:10.900 ,0,1,0.,24.0,0.,24.0,0.,24.0,0.,24.0
1989-08-27T01:28:34.900 ,0,0,0.,24.0,0.,24.0,0.,24.0,0.,24.0
1989-08-27T01:28:58.900 ,0,1,0.,24.0,0.,24.0,0.,24.0,0.,24.0
1989-08-27T01:29:22.900 ,0,0,0.,24.0,0.,24.0,0.,24.0,0.,24.0
1989-08-27T01:29:46.900 ,1,1,1.,24.0,0.,24.0,0.,24.0,0.,24.0
1989-08-27T01:30:10.900 ,1,0,0.,24.0,0.,24.0,0.,24.0,0.,24.0
1989-08-27T01:30:34.900 ,2,1,0.,24.0,0.,24.0,0.,24.0,0.,24.0
1989-08-27T01:30:58.900 ,2,0,0.,24.0,0.,24.0,0.,24.0,0.,24.0
1989-08-27T01:31:22.900 ,3,1,0.,24.0,0.,24.0,0.,24.0,0.,24.0
1989-08-27T01:31:46.900 ,3,0,0.,24.0,0.,24.0,0.,24.0,0.,24.0
1989-08-27T01:32:10.900 ,4,1,0.,24.0,0.,24.0,0.,24.0,0.,24.0
1989-08-27T01:32:34.900 ,4,0,0.,24.0,0.,24.0,0.,24.0,0.,24.0
1989-08-27T01:32:58.900 ,5,1,0.,24.0,0.,24.0,0.,24.0,0.,24.0
1989-08-27T01:33:22.900 ,5,0,0.,24.0,0.,24.0,0.,24.0,0.,24.0
1989-08-27T01:33:46.900 ,6,1,0.,24.0,0.,24.0,0.,24.0,0.,24.0
1989-08-27T01:34:10.900 ,6,0,0.,24.0,0.,24.0,0.,24.0,0.,24.0
1989-08-27T01:34:34.900 ,7,1,9.,24.0,0.,24.0,0.,24.0,0.,24.0
1989-08-27T01:34:58.900 ,7,0,32.,24.0,0.,24.0,0.,24.0,0.,24.0
1989-08-27T01:35:22.900 ,7,1,24.,24.0,0.,24.0,0.,24.0,0.,24.0
1989-08-27T01:35:46.900 ,7,0,33.,24.0,1.,24.0,0.,24.0,0.,24.0
1989-08-27T01:36:10.900 ,6,1,28.,24.0,0.,24.0,0.,24.0,0.,24.0
1989-08-27T01:36:34.900 ,6,0,0.,24.0,0.,24.0,0.,24.0,0.,24.0
1989-08-27T01:36:58.900 ,5,1,0.,24.0,0.,24.0,0.,24.0,0.,24.0
1989-08-27T01:37:22.900 ,5,0,0.,24.0,0.,24.0,0.,24.0,0.,24.0
1989-08-27T01:37:46.900 ,4,1,0.,24.0,0.,24.0,0.,24.0,0.,24.0
1989-08-27T01:38:10.900 ,4,0,0.,24.0,0.,24.0,0.,24.0,0.,24.0
1989-08-27T01:38:34.900 ,3,1,0.,24.0,0.,24.0,0.,24.0,0.,24.0
1989-08-27T01:38:58.900 ,3,0,0.,24.0,0.,24.0,0.,24.0,0.,24.0
1989-08-27T01:39:22.900 ,2,1,0.,24.0,0.,24.0,0.,24.0,0.,24.0
1989-08-27T01:39:46.900 ,2,0,0.,24.0,0.,24.0,0.,24.0,0.,24.0
1989-08-27T01:40:10.900 ,1,1,0.,24.0,0.,24.0,0.,24.0,0.,24.0
1989-08-27T01:40:34.900 ,1,0,0.,24.0,1.,24.0,0.,24.0,0.,24.0
1989-08-27T01:40:58.900 ,0,1,0.,24.0,0.,24.0,0.,24.0,0.,24.0
1989-08-27T01:41:22.900 ,0,0,0.,24.0,0.,24.0,0.,24.0,0.,24.0
1989-08-27T01:41:46.900 ,0,1,0.,24.0,0.,24.0,0.,24.0,0.,24.0
1989-08-27T01:42:10.900 ,0,0,0.,24.0,0.,24.0,0.,24.0,0.,24.0
1989-08-27T01:42:34.900 ,1,1,0.,24.0,0.,24.0,0.,24.0,0.,24.0
1989-08-27T01:42:58.900 ,1,0,0.,24.0,0.,24.0,0.,24.0,0.,24.0
1989-08-27T01:43:22.900 ,2,1,0.,24.0,0.,24.0,0.,24.0,0.,24.0
1989-08-27T01:43:46.900 ,2,0,0.,24.0,0.,24.0,0.,24.0,0.,24.0
1989-08-27T01:44:10.900 ,3,1,0.,24.0,0.,24.0,0.,24.0,0.,24.0
1989-08-27T01:44:34.900 ,3,0,0.,24.0,0.,24.0,0.,24.0,0.,24.0
1989-08-27T01:44:58.900 ,4,1,0.,24.0,0.,24.0,0.,24.0,0.,24.0
1989-08-27T01:45:22.900 ,4,0,0.,24.0,0.,24.0,0.,24.0,0.,24.0
1989-08-27T01:45:46.900 ,5,1,0.,24.0,0.,24.0,0.,24.0,0.,24.0
1989-08-27T01:46:10.900 ,5,0,0.,24.0,0.,24.0,0.,24.0,0.,24.0
1989-08-27T01:46:34.900 ,6,1,0.,24.0,0.,24.0,0.,24.0,0.,24.0
1989-08-27T01:46:58.900 ,6,0,0.,24.0,0.,24.0,0.,24.0,0.,24.0
1989-08-27T01:47:22.900 ,7,1,5.,24.0,0.,24.0,0.,24.0,0.,24.0
1989-08-27T01:47:46.900 ,7,0,27.,24.0,0.,24.0,0.,24.0,0.,24.0
1989-08-27T01:48:10.900 ,7,1,36.,24.0,0.,24.0,0.,24.0,0.,24.0
1989-08-27T01:48:34.900 ,7,0,38.,24.0,0.,24.0,0.,24.0,0.,24.0
1989-08-27T01:48:58.900 ,6,1,19.,24.0,0.,24.0,0.,24.0,0.,24.0
1989-08-27T01:49:22.900 ,6,0,0.,24.0,0.,24.0,0.,24.0,0.,24.0
1989-08-27T01:49:46.900 ,5,1,0.,24.0,0.,24.0,0.,24.0,0.,24.0
1989-08-27T01:50:10.900 ,5,0,0.,24.0,0.,24.0,0.,24.0,0.,24.0
1989-08-27T01:50:34.900 ,4,1,0.,24.0,0.,24.0,0.,24.0,0.,24.0
1989-08-27T01:50:58.900 ,4,0,0.,24.0,0.,24.0,0.,24.0,0.,24.0
1989-08-27T01:51:22.900 ,3,1,0.,24.0,0.,24.0,0.,24.0,0.,24.0
1989-08-27T01:51:46.900 ,3,0,0.,24.0,0.,24.0,0.,24.0,0.,24.0
1989-08-27T01:52:10.900 ,2,1,0.,24.0,0.,24.0,0.,24.0,0.,24.0
1989-08-27T01:52:34.900 ,2,0,0.,24.0,0.,24.0,0.,24.0,0.,24.0
1989-08-27T01:52:58.900 ,1,1,0.,24.0,0.,24.0,0.,24.0,0.,24.0
1989-08-27T01:53:22.900 ,1,0,0.,24.0,0.,24.0,0.,24.0,0.,24.0
1989-08-27T01:53:46.900 ,0,1,0.,24.0,0.,24.0,0.,24.0,0.,24.0
1989-08-27T01:54:10.900 ,0,0,0.,24.0,0.,24.0,0.,24.0,0.,24.0
1989-08-27T01:54:34.900 ,0,1,0.,24.0,0.,24.0,0.,24.0,0.,24.0
1989-08-27T01:54:58.900 ,0,0,0.,24.0,0.,24.0,0.,24.0,0.,24.0
1989-08-27T01:55:22.900 ,1,1,0.,24.0,0.,24.0,0.,24.0,0.,24.0
1989-08-27T01:55:46.900 ,1,0,0.,24.0,0.,24.0,0.,24.0,0.,24.0
1989-08-27T01:56:10.900 ,2,1,0.,24.0,0.,24.0,0.,24.0,0.,24.0
1989-08-27T01:56:34.900 ,2,0,0.,24.0,0.,24.0,0.,24.0,0.,24.0
1989-08-27T01:56:58.900 ,3,1,1.,24.0,0.,24.0,0.,24.0,0.,24.0
1989-08-27T01:57:22.900 ,3,0,0.,24.0,0.,24.0,0.,24.0,0.,24.0
1989-08-27T01:57:46.900 ,4,1,0.,24.0,0.,24.0,0.,24.0,0.,24.0
1989-08-27T01:58:10.900 ,4,0,0.,24.0,0.,24.0,0.,24.0,0.,24.0
1989-08-27T01:58:34.900 ,5,1,0.,24.0,0.,24.0,0.,24.0,0.,24.0
1989-08-27T01:58:58.900 ,5,0,0.,24.0,0.,24.0,0.,24.0,0.,24.0
1989-08-27T01:59:22.900 ,6,1,0.,24.0,0.,24.0,0.,24.0,0.,24.0
1989-08-27T01:59:46.900 ,6,0,0.,24.0,0.,24.0,0.,24.0,0.,24.0
1989-08-27T02:00:10.900 ,7,1,5.,24.0,1.,24.0,0.,24.0,0.,24.0
1989-08-27T02:00:34.900 ,7,0,31.,24.0,0.,24.0,0.,24.0,0.,24.0
1989-08-27T02:00:58.900 ,7,1,40.,24.0,0.,24.0,0.,24.0,0.,24.0
1989-08-27T02:01:22.900 ,7,0,37.,24.0,0.,24.0,0.,24.0,0.,24.0
1989-08-27T02:01:46.900 ,6,1,20.,24.0,0.,24.0,0.,24.0,0.,24.0
1989-08-27T02:02:10.900 ,6,0,0.,24.0,0.,24.0,0.,24.0,0.,24.0
1989-08-27T02:02:34.900 ,5,1,0.,24.0,0.,24.0,0.,24.0,0.,24.0
1989-08-27T02:02:58.900 ,5,0,0.,24.0,0.,24.0,0.,24.0,0.,24.0
1989-08-27T02:03:22.900 ,4,1,0.,24.0,0.,24.0,0.,24.0,0.,24.0
1989-08-27T02:03:46.900 ,4,0,0.,24.0,0.,24.0,0.,24.0,0.,24.0
1989-08-27T02:04:10.900 ,3,1,0.,24.0,0.,24.0,0.,24.0,0.,24.0
1989-08-27T02:04:34.900 ,3,0,0.,24.0,0.,24.0,0.,24.0,0.,24.0
1989-08-27T02:04:58.900 ,2,1,0.,24.0,0.,24.0,0.,24.0,0.,24.0
1989-08-27T02:05:22.900 ,2,0,0.,24.0,0.,24.0,0.,24.0,0.,24.0
1989-08-27T02:05:46.900 ,1,1,0.,24.0,0.,24.0,0.,24.0,0.,24.0
1989-08-27T02:06:10.900 ,1,0,0.,24.0,0.,24.0,0.,24.0,0.,24.0
1989-08-27T02:06:34.900 ,0,1,0.,24.0,0.,24.0,0.,24.0,0.,24.0
1989-08-27T02:06:58.900 ,0,0,0.,24.0,0.,24.0,0.,24.0,0.,24.0
1989-08-27T02:07:22.900 ,0,1,0.,24.0,0.,24.0,0.,24.0,0.,24.0
1989-08-27T02:07:46.900 ,0,0,0.,24.0,0.,24.0,0.,24.0,0.,24.0
1989-08-27T02:08:10.900 ,1,1,0.,24.0,0.,24.0,0.,24.0,0.,24.0
1989-08-27T02:08:34.900 ,1,0,0.,24.0,0.,24.0,0.,24.0,0.,24.0
1989-08-27T02:08:58.900 ,2,1,0.,24.0,1.,24.0,0.,24.0,0.,24.0
1989-08-27T02:09:22.900 ,2,0,0.,24.0,0.,24.0,0.,24.0,0.,24.0
1989-08-27T02:09:46.900 ,3,1,0.,24.0,0.,24.0,0.,24.0,0.,24.0
1989-08-27T02:10:10.900 ,3,0,0.,24.0,0.,24.0,0.,24.0,0.,24.0
1989-08-27T02:10:34.900 ,4,1,0.,24.0,0.,24.0,0.,24.0,0.,24.0
1989-08-27T02:10:58.900 ,4,0,0.,24.0,0.,24.0,0.,24.0,0.,24.0
1989-08-27T02:11:22.900 ,5,1,0.,24.0,0.,24.0,0.,24.0,0.,24.0
1989-08-27T02:11:46.900 ,5,0,0.,24.0,0.,24.0,0.,24.0,0.,24.0
1989-08-27T02:12:10.900 ,6,1,0.,24.0,0.,24.0,0.,24.0,0.,24.0
1989-08-27T02:12:34.900 ,6,0,0.,24.0,0.,24.0,0.,24.0,0.,24.0
1989-08-27T02:12:58.900 ,7,1,8.,24.0,0.,24.0,0.,24.0,0.,24.0
1989-08-27T02:13:22.900 ,7,0,38.,24.0,0.,24.0,0.,24.0,0.,24.0
1989-08-27T02:13:46.900 ,7,1,27.,24.0,0.,24.0,0.,24.0,0.,24.0
1989-08-27T02:14:10.900 ,7,0,34.,24.0,0.,24.0,0.,24.0,0.,24.0
1989-08-27T02:14:34.900 ,6,1,22.,24.0,0.,24.0,0.,24.0,0.,24.0
1989-08-27T02:14:58.900 ,6,0,0.,24.0,0.,24.0,0.,24.0,0.,24.0
1989-08-27T02:15:22.900 ,5,1,0.,24.0,0.,24.0,0.,24.0,0.,24.0
1989-08-27T02:15:46.900 ,5,0,0.,24.0,0.,24.0,0.,24.0,0.,24.0
1989-08-27T02:16:10.900 ,4,1,0.,24.0,0.,24.0,0.,24.0,0.,24.0
1989-08-27T02:16:34.900 ,4,0,0.,24.0,0.,24.0,0.,24.0,0.,24.0
1989-08-27T02:16:58.900 ,3,1,0.,24.0,0.,24.0,0.,24.0,0.,24.0
1989-08-27T02:17:22.900 ,3,0,0.,24.0,0.,24.0,0.,24.0,0.,24.0
1989-08-27T02:17:46.900 ,2,1,0.,24.0,0.,24.0,0.,24.0,0.,24.0
1989-08-27T02:18:10.900 ,2,0,0.,24.0,0.,24.0,0.,24.0,0.,24.0
1989-08-27T02:18:34.900 ,1,1,0.,24.0,0.,24.0,0.,24.0,0.,24.0
1989-08-27T02:18:58.900 ,1,0,0.,24.0,0.,24.0,0.,24.0,0.,24.0
1989-08-27T02:19:22.900 ,0,1,0.,24.0,0.,24.0,0.,24.0,0.,24.0
1989-08-27T02:19:46.900 ,0,0,0.,24.0,0.,24.0,0.,24.0,0.,24.0
1989-08-27T02:20:10.900 ,0,1,0.,24.0,0.,24.0,0.,24.0,0.,24.0
1989-08-27T02:20:34.900 ,0,0,0.,24.0,0.,24.0,0.,24.0,0.,24.0
1989-08-27T02:20:58.900 ,1,1,0.,24.0,0.,24.0,0.,24.0,0.,24.0
1989-08-27T02:21:22.900 ,1,0,0.,24.0,0.,24.0,0.,24.0,0.,24.0
1989-08-27T02:21:46.900 ,2,1,0.,24.0,0.,24.0,0.,24.0,0.,24.0
1989-08-27T02:22:10.900 ,2,0,0.,24.0,0.,24.0,0.,24.0,0.,24.0
1989-08-27T02:22:34.900 ,3,1,0.,24.0,0.,24.0,0.,24.0,0.,24.0
1989-08-27T02:22:58.900 ,3,0,0.,24.0,0.,24.0,0.,24.0,0.,24.0
1989-08-27T02:23:22.900 ,4,1,0.,24.0,0.,24.0,0.,24.0,0.,24.0
1989-08-27T02:23:46.900 ,4,0,0.,24.0,0.,24.0,0.,24.0,0.,24.0
1989-08-27T02:24:10.900 ,5,1,0.,24.0,0.,24.0,0.,24.0,0.,24.0
1989-08-27T02:24:34.900 ,5,0,0.,24.0,0.,24.0,0.,24.0,0.,24.0
1989-08-27T02:24:58.900 ,6,1,0.,24.0,0.,24.0,0.,24.0,0.,24.0
1989-08-27T02:25:22.900 ,6,0,0.,24.0,0.,24.0,0.,24.0,0.,24.0
1989-08-27T02:25:46.900 ,7,1,6.,24.0,2.,24.0,0.,24.0,0.,24.0
1989-08-27T02:26:10.900 ,7,0,22.,24.0,0.,24.0,0.,24.0,0.,24.0
1989-08-27T02:26:34.900 ,7,1,26.,24.0,0.,24.0,0.,24.0,0.,24.0
1989-08-27T02:26:58.900 ,7,0,31.,24.0,0.,24.0,0.,24.0,0.,24.0
1989-08-27T02:27:22.900 ,6,1,17.,24.0,0.,24.0,0.,24.0,0.,24.0
1989-08-27T02:27:46.900 ,6,0,0.,24.0,1.,24.0,0.,24.0,0.,24.0
1989-08-27T02:28:10.900 ,5,1,0.,24.0,0.,24.0,0.,24.0,0.,24.0
1989-08-27T02:28:34.900 ,5,0,0.,24.0,0.,24.0,0.,24.0,0.,24.0
1989-08-27T02:28:58.900 ,4,1,0.,24.0,0.,24.0,0.,24.0,0.,24.0
1989-08-27T02:29:22.900 ,4,0,0.,24.0,0.,24.0,0.,24.0,0.,24.0
1989-08-27T02:29:46.900 ,3,1,0.,24.0,0.,24.0,0.,24.0,0.,24.0
1989-08-27T02:30:10.900 ,3,0,0.,24.0,0.,24.0,0.,24.0,0.,24.0
1989-08-27T02:30:34.900 ,2,1,0.,24.0,0.,24.0,0.,24.0,0.,24.0
1989-08-27T02:30:58.900 ,2,0,0.,24.0,0.,24.0,0.,24.0,0.,24.0
1989-08-27T02:31:22.900 ,1,1,0.,24.0,1.,24.0,0.,24.0,0.,24.0
1989-08-27T02:31:46.900 ,1,0,0.,24.0,0.,24.0,0.,24.0,0.,24.0
1989-08-27T02:32:10.900 ,0,1,0.,24.0,0.,24.0,0.,24.0,0.,24.0
1989-08-27T02:32:34.900 ,0,0,0.,24.0,0.,24.0,0.,24.0,0.,24.0
1989-08-27T02:32:58.900 ,0,1,0.,24.0,0.,24.0,0.,24.0,0.,24.0
1989-08-27T02:33:22.900 ,0,0,0.,24.0,0.,24.0,0.,24.0,0.,24.0
1989-08-27T02:33:46.890 ,1,1,0.,24.0,0.,24.0,0.,24.0,0.,24.0
1989-08-27T02:34:10.890 ,1,0,0.,24.0,0.,24.0,0.,24.0,0.,24.0